Flag for Argentina Weather past 2 weeks in Tucumán, Tucumán, Argentina

Now
41 °F

Clear.


Feels Like: 38 °F
Forecast: 38 / 53 °F
Wind: 5 mph from Northwest

Location: Tucuman Aerodrome

Current Time: Jul 24, 2014 at 10:25:22 AM

Latest Report: Jul 24, 2014 at 9:00 AM


Visibility: 6 mi

Pressure: 30.45 "Hg

Humidity: 76%

Dew point: 34 °F

Location of TucumánLocation

Historic Weather in Tucumán — Graph

°F

Tucumán temperature yesterday

Maximum temperature yesterday: 59 °F (at 12:00 AM)
Minimum temperature yesterday: 45 °F (at 10:00 PM)
Average temperature yesterday: 52 °F

Past Weeks' High & Low Weather Summary

 TemperatureHumidityPressure
High75 °F (Jul 14, 4:00 PM)94% (Jul 14, 12:00 AM)30.45 "Hg (Jul 14, 12:00 AM)
Low37 °F (Jul 24, 7:00 AM)38% (Jul 11, 5:00 PM)29.71 "Hg (Jul 14, 4:00 PM)
Average58 °F71%30.07 "Hg
* Reported Jul 9 9:00 AM — Jul 24 9:00 AM, Tucumán, Weather by CustomWeather, © 2014

Note: Actual official high and low records may vary slightly from our data, if they occured in-between our weather recording intervals... More about our weather records

Advertising

Tucumán weather history for previous 24 hours

 ConditionsComfort  
Time TempWeatherWind HumidityBarometerVisibility
9:00 AM
Jul 24
41 °FClear.5 mph76%30.45 "Hg6 mi
8:00 AM39 °FClear.8 mph81%30.42 "Hg6 mi
7:00 AM37 °FClear.12 mph87%30.42 "Hg6 mi
6:00 AM39 °FClear.9 mph81%30.39 "Hg6 mi
5:00 AM39 °FClear.7 mph81%30.39 "Hg6 mi
3:00 AM41 °FClear.5 mph81%30.36 "Hg6 mi
2:00 AM43 °FClear.5 mph81%30.36 "Hg6 mi
1:00 AM45 °FPassing clouds.5 mph71%30.36 "Hg6 mi
12:00 AM46 °FPassing clouds.5 mph71%30.36 "Hg6 mi
11:00 PM
Jul 23
45 °FPassing clouds.6 mph76%30.33 "Hg6 mi
10:00 PM45 °FPassing clouds.8 mph76%30.30 "Hg6 mi
9:00 PM48 °FPassing clouds.7 mph66%30.27 "Hg6 mi
8:00 PM50 °FPassing clouds.7 mph62%30.21 "Hg6 mi
7:00 PM54 °FPartly cloudy.7 mph54%30.18 "Hg6 mi
6:00 PM55 °FPassing clouds.7 mph55%30.12 "HgN/A
5:00 PM55 °FScattered clouds.7 mph55%30.12 "HgN/A
4:00 PM55 °FBroken clouds.12 mph59%30.09 "Hg6 mi
3:00 PM54 °FScattered clouds.12 mph58%30.09 "Hg6 mi
2:00 PM52 °FBroken clouds.12 mph67%30.12 "Hg6 mi
1:00 PM52 °FPartly sunny.14 mph67%30.15 "Hg6 mi
12:00 PM50 °FPartly sunny.12 mph71%30.15 "Hg6 mi
11:00 AM50 °FOvercast.12 mph76%30.18 "Hg6 mi
10:00 AM50 °FClear.14 mph82%30.15 "Hg6 mi
Weather by CustomWeather, © 2014

See weather overviewHow to use our weather pages